Lid_Strength_Index
5 4 4 4 4 4 4 3 3 3 2 3 2 2 2 2 1 0 1 1 2 5 7 7 8 9 9 10 10 11 12 12 13 13 12 12 11 11 11 11 11 11 11
7 6 5 4 4 3 4 4 3 3 2 1 2 2 4 5 5 3 2 3 5 7 8 9 9 11 11 11 11 11 12 12 13 14 14 14 13 12 11 11 12 13 13
7 7 6 6 5 4 4 3 3 3 2 1 2 5 6 8 9 8 9 8 9 9 8 8 9 10 10 10 11 11 12 13 13 14 14 15 15 15 13 13 12 13 13
7 7 7 7 6 4 3 3 3 3 2 1 2 4 5 6 9 9 9 9 9 8 8 8 10 10 11 11 12 11 13 12 14 14 13 14 15 17 17 14 14 13 13
8 8 7 6 6 6 4 2 3 2 2 1 2 4 6 8 8 10 10 10 9 8 9 10 11 11 12 12 13 13 13 13 13 13 14 14 14 15 16 17 15 14 14
9 8 7 6 7 6 5 3 3 3 2 2 3 5 7 9 11 12 11 11 10 10 11 11 12 12 12 12 12 13 13 13 13 13 14 14 15 15 16 17 17 17 15
9 8 7 7 6 6 5 5 3 3 2 3 4 5 8 9 10 11 11 11 11 12 11 11 12 12 12 12 12 12 12 13 14 14 14 13 14 14 15 16 17 18 16
9 9 7 6 6 5 5 5 3 3 3 4 5 5 9 9 10 9 10 11 12 12 11 12 12 12 12 12 12 12 12 13 13 14 14 14 14 14 15 16 17 18 18
9 9 7 6 6 6 5 4 3 3 3 4 4 7 8 9 10 10 11 11 12 12 12 12 13 13 13 13 13 13 15 15 14 14 14 14 14 15 15 15 16 17 19
8 7 6 5 5 5 4 4 3 4 4 4 5 6 9 9 10 11 11 13 12 12 12 13 13 13 13 14 14 15 15 16 15 14 15 15 15 15 15 15 15 16 17
7 6 5 4 4 5 4 3 4 4 3 4 7 11 12 11 11 12 13 13 13 12 12 13 13 13 14 14 15 15 15 15 15 14 15 15 15 15 16 16 15 16 16
7 5 5 5 5 4 4 4 3 3 6 9 11 13 12 12 12 14 13 13 13 12 13 13 13 14 15 15 16 16 15 15 15 15 15 15 14 16 16 16 16 16 16
7 6 5 5 4 4 3 3 3 7 9 11 12 13 13 12 13 13 13 12 12 12 13 14 14 15 15 15 15 16 15 15 15 15 15 15 16 16 16 16 16 16 14
6 6 6 5 5 5 5 6 8 9 10 12 12 12 12 13 13 13 12 13 13 14 14 15 15 14 15 15 15 14 15 15 15 14 15 15 15 15 16 15 16 14 15
6 6 6 5 5 5 7 8 9 11 11 12 12 13 13 13 13 13 13 13 14 14 14 15 15 15 15 15 14 14 15 15 15 15 14 14 13 11 12 13 15 15 15
7 6 6 5 7 8 9 10 11 11 11 12 12 13 13 13 13 14 14 14 15 15 15 15 15 16 15 13 14 14 15 15 15 15 15 15 12 13 11 11 10 11 13
7 6 6 8 10 10 11 11 12 11 12 13 13 13 14 14 14 14 15 16 15 16 15 16 16 15 15 14 14 13 15 15 15 16 15 15 13 13 14 12 10 11 10
7 7 9 10 11 11 12 12 12 12 13 13 14 14 14 14 15 15 15 16 15 16 17 16 15 16 15 14 14 13 15 16 15 15 15 15 15 14 12 13 14 14 13
10 11 12 12 13 13 12 12 13 14 14 14 14 14 14 15 15 16 16 16 17 15 16 16 16 17 17 14 14 14 15 16 16 15 15 14 14 11 10 12 15 14 13
12 13 13 13 12 12 13 13 14 14 15 15 14 14 14 15 16 17 16 15 16 16 16 17 17 14 17 14 13 13 15 16 16 15 14 11 12 10 10 12 13 15 14
12 12 12 13 12 11 12 13 14 14 14 14 14 15 16 16 15 15 16 16 17 17 17 17 17 16 16 16 13 12 15 15 15 15 15 14 11 10 10 10 13 13 10
12 12 13 13 12 11 12 15 15 15 16 16 16 15 15 15 16 17 17 17 16 17 17 17 17 17 16 13 13 12 12 12 14 15 15 14 11 10 11 11 9 9 9
13 13 14 15 14 14 15 17 17 16 16 16 16 16 16 16 16 16 17 17 17 17 18 18 18 18 17 17 12 12 12 12 13 14 12 11 11 11 11 10 9 10 13
13 14 14 15 16 16 16 16 16 16 16 16 16 16 16 16 16 16 16 17 18 18 18 18 18 18 18 17 16 14 15 13 13 13 14 12 12 11 11 12 12 13 13
13 14 15 17 17 17 16 16 15 14 15 16 16 16 16 16 17 17 18 18 17 17 18 18 18 18 18 16 13 13 14 14 13 13 15 15 15 14 14 14 13 13 13
15 16 17 17 16 15 15 14 14 14 16 16 16 17 17 18 18 18 18 14 15 15 14 14 15 16 14 13 13 12 12 12 12 15 16 16 15 15 15 14 14 14 13